Theta_e
302 303 304 305 305 305 307 307 307 309 309 310 310 310 310 311 312 315 316 317 317 323 330 334 336 339 345 348 351 346 352 353 348 345 331 330 341 342 346 351 351 349 349 348 348
303 304 304 304 305 306 306 308 308 309 310 310 310 311 311 311 314 318 319 319 319 321 331 332 333 335 339 342 348 346 348 346 338 336 327 325 340 343 351 352 354 352 351 350 348
305 306 307 307 306 306 306 307 308 309 310 311 310 311 311 311 314 313 326 326 319 325 329 332 331 337 338 338 340 340 338 333 333 328 325 325 337 343 350 353 352 353 352 350 350
311 313 314 314 313 310 309 307 308 309 310 310 311 312 311 315 313 320 320 321 320 324 329 324 322 323 331 337 335 334 332 333 327 327 323 324 337 345 349 348 348 349 349 349 350
315 317 316 317 317 317 315 310 309 309 311 311 311 312 311 311 312 317 317 323 324 327 326 324 323 327 332 334 336 335 334 326 323 321 322 323 335 344 347 345 349 349 348 350 350
317 317 317 317 317 317 317 316 309 311 314 314 314 312 316 310 316 316 324 325 325 327 327 324 323 324 328 335 333 331 329 324 320 322 324 323 324 341 341 350 352 351 350 349 349
318 318 317 318 318 317 317 313 311 314 316 316 315 311 316 310 316 320 323 323 319 323 325 326 326 329 330 331 326 325 321 320 322 323 322 321 324 334 334 350 352 354 353 351 349
318 318 317 317 317 317 316 310 312 317 317 316 314 316 308 314 314 314 315 318 319 320 328 327 328 323 328 325 318 319 318 321 321 321 322 321 322 324 349 351 351 352 353 353 351
318 318 318 318 317 317 311 311 313 315 317 315 317 313 310 315 317 319 319 319 320 325 329 330 326 325 324 320 320 317 321 320 319 320 322 322 321 322 342 352 353 351 351 351 350
318 317 317 317 316 316 313 312 313 319 313 317 321 315 316 315 315 317 317 318 317 323 328 329 324 323 316 320 328 322 320 318 319 321 319 320 319 319 323 351 354 352 352 351 350
317 317 316 316 316 314 313 312 306 308 309 310 310 313 312 314 315 316 317 315 317 327 328 328 326 325 327 321 321 321 319 320 319 320 321 320 319 321 325 349 352 353 352 351 351
317 316 316 316 316 312 311 306 307 307 307 308 308 309 311 312 313 313 316 315 322 322 326 326 327 327 328 322 322 321 320 320 319 320 321 320 320 320 328 350 350 351 351 350 348
317 316 315 316 315 313 310 308 309 308 307 309 309 310 311 311 312 313 314 315 317 320 325 322 324 327 328 326 325 322 321 321 320 320 319 319 319 319 320 337 348 348 349 348 349
317 316 314 315 314 312 312 309 310 308 307 311 314 315 314 313 314 314 314 315 315 315 316 320 324 326 326 326 324 325 322 322 321 320 320 319 320 319 318 323 340 349 348 348 348
317 316 314 312 310 309 314 311 311 306 311 313 315 316 312 314 316 318 316 314 315 315 315 316 318 320 323 323 321 323 321 321 321 319 318 319 317 318 317 318 319 325 347 348 347
316 315 314 310 308 313 312 311 308 310 311 314 314 313 312 314 315 316 316 314 314 314 315 315 316 317 318 319 319 321 321 317 312 312 317 317 317 317 317 319 319 324 331 345 347
316 315 310 307 310 311 311 306 309 311 312 315 314 312 311 313 314 316 316 315 313 314 314 314 315 316 318 318 318 320 316 318 319 319 321 315 316 317 318 318 318 319 335 342 346
315 313 309 309 309 310 308 307 313 313 313 313 313 311 314 313 314 314 315 316 316 313 312 313 315 316 317 317 317 317 315 317 320 319 319 317 319 321 320 318 318 320 321 338 345
314 310 310 311 310 310 305 310 312 312 313 313 312 314 313 314 314 313 314 316 317 317 318 314 316 316 317 317 317 317 318 316 317 314 317 317 317 319 320 320 326 341 347 333 339
309 307 310 311 312 308 304 309 310 309 312 313 315 314 314 314 314 313 314 316 316 318 315 318 322 320 321 318 318 317 317 319 318 328 325 321 320 322 322 321 333 339 342 336 347
306 306 310 311 311 307 308 308 310 311 312 314 314 314 314 314 313 314 315 316 316 318 317 319 319 322 322 322 321 321 318 318 320 319 323 324 322 318 326 345 349 349 346 354 353
301 310 310 311 310 303 311 312 313 314 316 316 314 313 314 313 313 314 315 316 317 322 319 320 316 321 323 322 321 320 320 318 322 322 319 320 323 344 344 343 341 347 355 359 357
300 300 309 310 311 307 308 312 312 317 318 319 318 320 318 317 320 317 318 320 321 324 320 321 316 322 323 324 325 327 325 318 318 318 322 323 324 342 341 338 341 346 349 352 352
301 308 304 301 301 308 308 310 315 315 318 319 318 318 319 319 318 317 324 323 324 324 334 321 320 324 323 325 326 331 329 331 317 318 319 320 324 346 342 342 342 349 348 349 349
300 307 303 307 307 306 307 309 314 314 313 317 319 319 319 321 322 324 323 322 323 324 321 318 319 322 324 324 329 333 344 345 333 321 323 326 341 348 343 345 347 349 344 344 347
306 306 302 305 303 306 306 310 311 311 311 319 320 319 319 321 322 323 323 322 323 321 321 316 321 327 326 326 329 339 334 335 346 347 352 350 349 347 345 345 349 350 347 344 342
303 303 303 306 304 306 306 309 310 308 311 314 318 319 318 320 318 318 317 318 320 321 320 316 318 319 323 324 330 341 343 342 344 342 344 348 347 345 345 344 347 344 343 345 345
Wind_Speed
27 27 27 26 26 27 27 27 26 25 25 25 25 25 26 28 28 17 7 8 6 17 11 21 13 8 10 4 5 4 3 2 4 4 9 4 1 2 2 5 4 6 6 6 28
28 28 29 31 30 29 29 27 27 26 25 26 26 25 25 28 23 10 3 5 8 17 20 19 7 9 3 4 3 4 4 9 6 4 7 6 5 8 3 1 3 4 8 24 28
28 29 30 31 31 32 31 30 29 28 26 25 24 24 23 21 6 4 6 4 13 14 8 10 8 8 5 5 5 5 5 4 5 7 7 5 3 6 9 6 8 8 13 14 22
29 30 32 32 33 33 33 32 31 30 29 25 22 21 19 6 5 1 7 9 5 12 6 5 3 4 4 6 6 3 7 6 5 6 4 5 2 6 9 10 8 13 18 16 17
31 31 33 34 34 35 35 34 33 32 29 25 20 15 7 2 10 13 12 6 8 12 5 3 4 3 5 4 2 5 5 5 9 9 8 4 5 6 11 4 10 18 19 17 16
32 33 34 35 36 37 36 36 34 29 28 25 17 9 2 5 6 6 4 2 5 9 5 7 6 7 5 5 7 6 5 7 7 6 4 6 7 9 5 10 13 19 19 17 17
33 34 37 37 38 40 40 35 28 29 22 18 11 5 3 14 8 7 8 8 9 11 5 10 6 3 2 5 5 5 5 7 5 1 4 4 3 3 4 11 15 17 17 16 16
33 35 37 38 40 42 40 28 26 14 10 9 3 6 7 6 10 15 15 14 13 18 18 8 8 7 5 3 7 5 3 4 6 4 2 6 7 5 6 10 13 15 15 16 17
34 35 37 38 39 42 30 31 13 4 12 8 3 2 9 8 3 3 1 8 11 9 11 4 4 4 2 4 4 4 5 4 7 5 1 3 7 5 7 13 13 15 15 16 15
34 36 37 38 39 41 33 17 7 5 6 3 1 2 5 3 12 19 23 7 4 3 1 5 3 4 3 3 6 4 3 4 5 5 6 3 8 8 5 12 16 14 13 15 15
33 34 37 38 41 30 29 6 6 5 8 5 6 4 15 11 19 6 6 7 3 3 4 4 4 6 11 9 5 3 4 7 4 5 4 4 7 13 7 7 11 14 16 15 17
32 33 37 37 39 14 14 6 5 2 9 6 9 7 18 10 6 6 9 5 4 6 3 2 5 9 10 6 5 4 6 7 6 3 2 12 12 13 6 10 17 18 15 16 10
31 33 37 36 25 11 9 9 10 7 1 8 5 4 8 5 5 7 7 5 6 4 6 10 6 11 5 4 4 5 4 6 9 4 5 6 8 6 5 6 9 12 17 11 16
31 33 37 38 7 23 8 3 21 3 4 7 6 4 5 3 5 9 7 8 2 10 7 6 8 9 6 5 8 7 6 8 6 3 5 2 5 9 5 7 8 14 12 16 16
30 33 35 35 18 7 7 18 12 4 4 10 7 5 11 1 6 5 2 3 9 8 7 9 7 7 10 15 9 10 7 9 6 4 1 3 2 8 4 5 9 12 17 20 20
32 32 37 15 10 11 13 18 2 5 3 7 5 7 10 4 3 7 5 0 3 4 4 7 5 8 9 8 9 4 3 4 4 3 2 7 6 4 5 9 6 6 14 19 18
32 33 29 13 4 9 13 3 5 3 5 7 6 10 4 5 8 5 7 8 2 4 3 4 7 3 4 3 2 4 6 3 3 2 6 3 2 8 9 11 10 11 11 16 17
35 30 12 7 10 8 5 5 4 1 3 5 5 9 4 7 5 7 8 7 3 1 2 4 7 8 4 9 9 7 9 6 5 4 6 2 4 8 11 9 9 10 9 14 17
32 14 4 11 3 2 5 4 4 3 3 7 9 4 5 3 0 7 5 3 3 4 3 2 6 4 6 6 9 5 4 7 2 4 3 4 7 9 10 11 7 10 9 12 17
21 11 6 8 5 5 5 2 2 4 4 1 2 1 3 5 6 5 4 3 9 5 4 5 4 3 2 3 2 6 6 3 3 2 4 7 5 8 12 11 17 18 17 10 6
6 3 13 5 6 5 3 4 4 7 3 5 4 3 6 4 3 4 4 8 5 11 4 3 1 7 1 4 6 1 1 2 5 5 5 8 7 6 7 8 13 18 18 9 3
4 2 5 4 4 1 1 3 4 6 1 4 3 5 3 3 4 3 4 4 11 8 8 3 2 3 6 5 4 5 8 7 6 6 4 5 11 6 8 7 10 13 14 8 7
2 2 4 0 2 3 5 4 3 4 4 4 2 2 2 3 4 1 4 8 9 9 5 6 3 5 9 5 3 2 3 5 4 3 8 6 8 7 10 10 10 12 16 13 13
2 2 4 4 1 3 3 3 5 6 4 3 3 3 4 2 2 5 5 6 14 7 8 4 2 5 4 6 4 8 8 4 4 5 6 7 6 10 11 8 9 11 13 14 14
3 1 3 2 2 2 0 2 4 6 5 5 4 2 4 3 5 3 4 6 10 1 3 3 3 3 6 5 9 5 11 17 5 4 7 6 7 2 4 8 7 11 10 10 12
2 2 3 1 2 2 2 2 2 4 3 4 2 9 4 4 6 6 4 4 8 7 5 2 3 1 4 5 3 3 9 16 9 5 5 10 7 4 5 9 11 12 13 13 13
1 1 3 2 1 1 3 1 3 4 5 6 4 4 6 6 6 14 11 12 10 4 4 3 4 2 5 6 5 6 4 8 6 4 5 2 5 7 11 13 9 9 13 14 12
Wind_Direction
12 7 4 0 358 356 351 347 345 342 339 335 333 334 332 329 327 315 250 242 204 183 176 156 176 158 179 214 206 165 78 235 266 292 293 285 207 129 146 134 170 183 151 172 149
8 6 1 358 355 351 348 345 341 338 336 336 335 333 332 331 325 274 292 223 182 165 157 157 168 166 187 216 200 149 154 213 199 242 276 292 218 146 113 192 184 83 63 132 144
6 3 1 355 351 349 346 343 338 334 331 332 332 333 331 331 332 259 21 271 186 172 176 181 140 154 199 169 206 179 208 231 233 232 262 277 240 161 130 238 214 172 151 156 154
3 359 357 353 350 346 342 338 334 331 330 327 326 330 329 345 316 273 343 357 214 198 179 182 145 179 216 207 200 199 225 247 271 175 251 267 145 197 176 218 183 159 162 159 176
360 356 354 351 349 344 339 335 330 329 326 320 318 322 323 349 245 272 308 333 171 182 225 182 165 200 217 223 215 219 239 201 254 285 210 245 233 199 227 219 123 140 161 171 186
356 352 350 349 346 342 337 334 329 325 315 309 306 297 184 260 277 277 274 115 180 192 192 176 215 214 249 234 187 227 241 257 259 261 230 175 234 152 257 146 148 157 176 167 187
351 349 347 345 344 340 337 333 332 319 311 297 289 200 202 237 275 270 281 275 277 261 206 203 212 203 345 299 309 294 277 307 272 264 282 255 346 166 251 171 171 177 174 174 192
348 347 344 344 343 339 336 336 330 343 345 326 189 158 242 267 282 288 294 293 282 250 236 234 194 185 179 265 1 350 19 291 294 337 280 88 275 213 162 178 191 185 186 182 193
346 344 341 342 342 339 339 333 325 359 32 54 88 171 268 326 308 55 67 297 294 259 231 202 152 205 99 104 3 352 243 253 313 290 68 80 270 231 190 192 201 194 202 189 194
343 343 340 340 341 339 340 332 343 336 351 339 66 4 295 330 308 303 304 290 277 346 177 179 139 128 68 83 232 209 235 241 248 306 349 269 267 286 292 193 199 201 205 207 190
341 341 340 340 341 341 349 2 12 356 36 273 256 279 275 294 300 255 160 326 237 156 201 206 129 174 211 200 187 198 228 251 251 230 280 270 283 294 288 195 199 205 206 214 211
340 342 340 339 340 353 7 80 90 275 306 250 246 258 270 277 304 317 169 157 161 202 200 342 200 211 223 174 205 241 270 285 284 290 186 298 286 287 213 214 202 203 212 215 189
339 340 340 338 340 350 7 130 346 345 285 307 231 246 268 132 241 274 156 188 185 204 199 210 212 215 181 185 186 226 209 248 248 329 215 286 309 329 291 278 229 219 219 210 205
335 337 339 337 342 335 319 294 331 198 54 292 335 319 337 282 285 224 228 172 229 207 203 230 225 218 219 218 176 252 205 251 282 64 273 92 282 305 252 245 215 219 213 223 212
332 333 333 333 299 295 309 321 334 151 11 327 319 297 314 157 288 303 246 79 212 200 138 230 180 189 224 232 198 234 178 207 245 215 66 205 137 269 329 247 232 228 220 221 213
328 330 327 327 288 288 311 328 73 40 282 330 341 326 354 330 285 299 341 96 206 202 287 238 200 166 207 220 189 209 167 61 57 95 335 249 165 264 241 233 272 233 228 225 215
327 328 319 297 259 307 322 12 41 113 338 334 331 334 340 297 319 7 331 348 15 5 298 309 253 230 154 258 185 141 75 323 328 11 225 5 73 236 271 257 232 250 229 224 214
329 329 323 308 287 293 332 52 85 304 297 304 315 323 339 360 314 325 350 352 353 175 248 202 289 163 183 182 205 193 161 166 203 212 257 124 256 275 236 269 269 265 243 232 221
332 340 24 355 54 49 65 61 190 211 284 324 326 359 316 320 211 358 340 271 284 6 303 214 277 301 166 167 145 191 159 205 195 55 43 268 299 299 294 287 276 270 271 252 222
332 336 13 4 43 21 69 219 253 222 313 342 267 274 300 300 10 359 330 296 320 336 185 274 315 255 299 139 222 163 171 101 52 86 313 298 293 261 290 314 324 326 324 299 190
349 42 4 95 352 45 106 234 277 254 211 200 218 274 254 292 291 280 274 298 7 320 344 332 126 288 282 178 217 147 248 84 116 158 168 276 264 229 320 342 329 339 319 317 178
6 53 347 324 48 47 122 210 271 287 348 286 233 222 250 284 291 306 336 275 343 328 327 307 159 291 257 281 266 188 214 172 151 221 234 184 258 54 9 350 4 3 360 13 50
54 271 358 61 92 338 311 303 275 321 309 316 289 5 1 301 340 293 318 277 311 325 351 326 343 338 346 356 2 343 285 236 141 105 194 167 256 69 35 20 3 47 40 30 43
65 20 331 45 49 113 17 316 320 313 272 311 269 20 348 326 327 292 318 304 316 302 317 76 179 187 226 237 329 292 318 294 198 150 188 207 261 9 1 20 3 44 59 49 51
26 243 181 325 3 6 341 302 322 337 333 332 322 347 271 281 313 274 275 309 299 241 329 97 266 199 271 254 269 266 8 346 279 254 174 189 144 347 52 63 34 63 60 64 59
87 66 1 247 319 319 53 166 262 318 252 317 14 313 247 237 211 258 221 216 253 310 354 315 273 251 283 270 271 285 9 338 328 14 60 114 107 68 95 80 69 74 76 67 63
70 99 108 292 12 85 219 311 279 352 270 247 317 294 282 251 270 262 240 248 242 338 329 285 171 110 270 316 306 85 36 261 277 341 307 269 95 100 75 65 27 49 63 68 69